[[{"header":{"parameterUnit":"m.s-1","parameterCategory":1,"la1":30.2992,"la2":30.254,"lo1":-89.0895,"lo2":-89.0443,"dy":0.0025,"dx":0.0025,"nx":19,"ny":19,"refTime":"2026-04-26T03:00:00:Z","depth":0,"parameterNumber":2,"parameterNumberName":"U-component_of_WINDS"},"data":[0,0,0,2.8732,2.8736,2.896,2.8961,2.9247,2.925,0,0,0,0,0,0,0,0,0,0,0,2.8664,2.8666,2.8731,2.8737,2.896,2.8961,2.9247,2.925,0,0,0,0,0,0,0,0,0,0,0,2.8663,2.8666,2.8668,2.8738,2.896,2.8961,2.9246,2.9078,0,0,0,0,0,0,0,0,0,0,2.8861,2.8797,2.8665,2.8668,2.8739,2.896,2.8961,2.907,2.9088,2.9145,0,2.9195,0,2.9226,2.9269,2.927,0,0,0,2.8738,2.8781,2.8842,2.8668,2.8741,2.8959,2.886,2.908,2.9101,2.917,2.9199,2.9209,2.9231,2.9271,2.9272,2.9591,2.9593,0,0,2.8726,2.8704,2.8828,2.8856,2.882,2.8853,2.8867,2.9093,2.9123,2.92,2.9216,2.9236,2.9272,2.9275,2.959,2.9592,0,0,0,2.869,2.8696,2.8751,2.8844,2.8884,2.8859,2.8875,2.9113,2.9133,2.9219,2.9239,2.9274,2.9278,2.9589,2.9591,2.9638,0,0,0,2.8682,2.8674,2.8746,2.8735,2.888,2.9001,2.8891,2.9117,2.9144,2.9238,2.9274,2.928,2.9587,2.959,2.9633,2.9664,0,0,0,2.865,2.867,2.8702,2.8733,2.8828,2.8998,2.9031,2.9124,2.9156,2.927,2.9281,2.9586,2.9589,2.9629,2.9657,2.974,0,0,0,2.861,2.8743,2.8702,2.8859,2.8826,2.9025,2.903,2.918,2.9283,2.9276,2.9587,2.959,2.9628,2.9653,2.9735,2.9805,2.9832,0,0,2.8766,2.8761,2.8855,2.8825,2.9025,2.8993,2.9201,2.9318,2.935,2.9509,2.9518,2.9635,2.9657,2.9739,2.9993,3.0014,0,0,0,2.8896,2.8963,2.9021,2.9117,2.9208,2.9288,2.9375,2.9418,2.9554,2.9427,2.9688,2.9702,2.9751,2.9785,2.9804,2.9847,2.9606,2.9605,2.9605,2.9085,2.9117,2.9273,2.9332,2.9425,2.9512,2.9591,2.9664,2.9671,2.9732,2.9779,2.9929,2.9968,2.9982,3.0026,2.9819,2.982,2.982,2.982,2.9315,2.9414,2.9417,2.957,2.9603,2.9733,2.9822,2.9822,2.9947,2.9897,2.9942,2.9882,3.0004,3.0045,2.9824,2.9823,2.9823,2.9822,2.9822,2.9441,2.9494,2.9542,2.9683,2.9788,2.9844,2.9963,2.999,3.0017,3.0061,3.0113,3.0112,3.0114,3.0084,3.0085,3.0085,3.0086,3.0086,3.0086,2.9552,2.9605,2.9702,2.9808,2.9872,2.996,3.0048,3.0113,3.0191,3.0201,3.0202,3.0202,3.001,2.9961,3.0095,3.0093,3.0092,3.0091,3.0091,2.9771,2.9725,2.9874,2.9938,3.0064,3.0166,3.0198,3.0327,3.0385,3.0443,3.0433,3.0287,3.0285,3.0271,3.023,3.0426,3.0426,3.0426,3.0426,2.9876,2.9877,3.0034,3.0134,3.0236,3.028,3.0447,3.0517,3.0582,3.062,3.0596,3.0544,3.0528,3.0536,3.0516,3.0478,3.0732,3.0733,3.0733,3.0012,3.0024,3.016,3.0221,3.0321,3.0406,3.0564,3.068,3.0746,3.0746,3.0649,3.0636,3.0554,3.0525,3.0523,3.0491,3.0423,0,0]},{"header":{"parameterUnit":"m.s-1","parameterCategory":1,"la1":30.2992,"la2":30.254,"lo1":-89.0895,"lo2":-89.0443,"dy":0.0025,"dx":0.0025,"nx":19,"ny":19,"refTime":"2026-04-26T03:00:00:Z","depth":0,"parameterNumber":3,"parameterNumberName":"V-component_of_WINDS"},"data":[0,0,0,2.1962,2.1962,2.1955,2.1955,2.1954,2.1954,0,0,0,0,0,0,0,0,0,0,0,2.197,2.197,2.1962,2.1962,2.1955,2.1955,2.1954,2.1954,0,0,0,0,0,0,0,0,0,0,0,2.197,2.197,2.197,2.1962,2.1955,2.1955,2.1954,2.1956,0,0,0,0,0,0,0,0,0,0,2.1962,2.1974,2.197,2.197,2.1962,2.1955,2.1955,2.1956,2.1956,2.1961,0,2.1967,0,2.196,2.1955,2.1955,0,0,0,2.1958,2.1974,2.1968,2.197,2.1962,2.1955,2.1957,2.1956,2.1956,2.1961,2.1967,2.1966,2.196,2.1955,2.1955,2.1996,2.1996,0,0,2.1959,2.1971,2.1968,2.1968,2.197,2.1957,2.1957,2.1956,2.1963,2.1967,2.1966,2.196,2.1955,2.1955,2.1995,2.1996,0,0,0,2.1962,2.1972,2.1965,2.1968,2.1966,2.1957,2.1957,2.1963,2.196,2.1966,2.196,2.1955,2.1955,2.1995,2.1995,2.2026,0,0,0,2.1962,2.1974,2.1965,2.1973,2.1966,2.1965,2.1964,2.196,2.1959,2.196,2.1955,2.1955,2.1994,2.1995,2.2024,2.2038,0,0,0,2.1968,2.1975,2.1975,2.1974,2.1971,2.1964,2.1961,2.1959,2.1956,2.1955,2.1955,2.1994,2.1995,2.2023,2.2035,2.2052,0,0,0,2.1978,2.2003,2.1976,2.2001,2.1971,2.1984,2.1961,2.1969,2.1972,2.1955,2.1994,2.1995,2.2022,2.2034,2.205,2.2067,2.2076,0,0,2.2017,2.2008,2.2022,2.1998,2.2018,2.1984,2.2008,2.1999,2.1987,2.1993,2.1994,2.2025,2.2035,2.2052,2.2121,2.2128,0,0,0,2.2038,2.2048,2.2051,2.2054,2.2047,2.2042,2.2027,2.2024,2.2028,2.1993,2.2035,2.2041,2.205,2.2058,2.2063,2.207,2.2,2.2,2.1999,2.211,2.2094,2.2116,2.2098,2.2102,2.2086,2.2087,2.2079,2.2062,2.2072,2.2074,2.2118,2.2127,2.2132,2.2139,2.2082,2.2082,2.2082,2.2082,2.2164,2.2175,2.2152,2.2164,2.2147,2.2157,2.2143,2.2131,2.2137,2.2116,2.2123,2.2099,2.214,2.2145,2.2085,2.2084,2.2084,2.2084,2.2084,2.2208,2.2211,2.2206,2.2208,2.2212,2.2194,2.2201,2.2185,2.2171,2.2178,2.2177,2.2176,2.2173,2.2179,2.2179,2.2179,2.2179,2.2179,2.2179,2.2256,2.225,2.2258,2.2253,2.2252,2.225,2.2234,2.2233,2.2228,2.2216,2.2216,2.2197,2.2147,2.2134,2.2182,2.2181,2.2181,2.2181,2.2181,2.2315,2.2299,2.2312,2.2311,2.2304,2.2308,2.2288,2.2287,2.2284,2.2288,2.2268,2.2234,2.2224,2.2219,2.2209,2.2272,2.2272,2.2272,2.2272,2.2351,2.2345,2.2354,2.2354,2.2353,2.2336,2.2351,2.2339,2.2324,2.2321,2.231,2.2295,2.2291,2.2283,2.2277,2.2267,2.2344,2.2344,2.2344,2.2386,2.2379,2.2394,2.238,2.2373,2.2367,2.238,2.2381,2.2361,2.2346,2.2319,2.2316,2.2291,2.2283,2.2267,2.2258,2.2238,0,0]}]]